QPF
0.00 0.01 0.02 0.04 0.08 0.10 0.06 0.01 0.00 0.00 0.00 0.00 0.00 0.00 0.01 0.02 0.02 0.06 0.12 0.04 0.01 0.00 0.00 0.00 0.00 0.00 0.00 0.00 0.00 0.00 0.00 0.00 0.00 0.00 0.00 0.00 0.00 0.00 0.01 0.01 0.01 0.01 0.01 0.01 0.01 0.02 0.01 0.00 0.00
0.00 0.01 0.03 0.08 0.12 0.06 0.02 0.01 0.00 0.00 0.00 0.00 0.00 0.00 0.01 0.03 0.04 0.03 0.04 0.03 0.02 0.01 0.00 0.00 0.00 0.00 0.00 0.00 0.00 0.00 0.00 0.00 0.00 0.00 0.01 0.01 0.01 0.01 0.01 0.01 0.01 0.01 0.01 0.01 0.01 0.01 0.00 0.00 0.01
0.01 0.01 0.05 0.10 0.11 0.03 0.01 0.01 0.00 0.00 0.00 0.00 0.00 0.02 0.05 0.07 0.04 0.02 0.02 0.02 0.01 0.01 0.00 0.00 0.00 0.00 0.00 0.00 0.00 0.00 0.00 0.00 0.00 0.01 0.01 0.01 0.01 0.01 0.01 0.01 0.01 0.01 0.01 0.01 0.01 0.01 0.00 0.01 0.01
0.01 0.02 0.04 0.07 0.04 0.01 0.02 0.02 0.01 0.00 0.00 0.00 0.00 0.01 0.03 0.03 0.02 0.04 0.03 0.02 0.01 0.01 0.00 0.00 0.00 0.00 0.00 0.00 0.00 0.00 0.00 0.00 0.01 0.01 0.01 0.02 0.02 0.01 0.01 0.01 0.00 0.01 0.01 0.01 0.01 0.01 0.01 0.01 0.02
0.01 0.02 0.07 0.07 0.02 0.01 0.02 0.01 0.00 0.00 0.00 0.00 0.01 0.02 0.02 0.02 0.02 0.05 0.07 0.03 0.01 0.00 0.00 0.00 0.00 0.00 0.00 0.00 0.00 0.00 0.00 0.00 0.00 0.01 0.01 0.02 0.02 0.01 0.01 0.01 0.01 0.01 0.01 0.01 0.00 0.01 0.01 0.02 0.02
0.01 0.02 0.04 0.04 0.02 0.01 0.01 0.01 0.01 0.00 0.00 0.00 0.00 0.02 0.04 0.02 0.02 0.04 0.07 0.03 0.01 0.00 0.00 0.00 0.00 0.00 0.00 0.00 0.00 0.00 0.00 0.00 0.00 0.01 0.01 0.01 0.01 0.01 0.01 0.01 0.00 0.00 0.00 0.00 0.00 0.00 0.01 0.01 0.02
0.00 0.00 0.01 0.03 0.04 0.01 0.01 0.01 0.01 0.00 0.00 0.00 0.00 0.01 0.04 0.03 0.01 0.02 0.02 0.03 0.02 0.00 0.00 0.00 0.00 0.00 0.00 0.00 0.00 0.00 0.00 0.00 0.00 0.00 0.01 0.01 0.01 0.01 0.01 0.01 0.00 0.00 0.01 0.01 0.00 0.01 0.01 0.01 0.01
0.00 0.00 0.01 0.02 0.02 0.01 0.01 0.01 0.00 0.00 0.00 0.01 0.01 0.03 0.03 0.02 0.01 0.01 0.02 0.03 0.03 0.01 0.01 0.00 0.00 0.00 0.00 0.00 0.01 0.00 0.00 0.00 0.01 0.00 0.00 0.00 0.00 0.00 0.01 0.00 0.00 0.00 0.00 0.01 0.01 0.01 0.01 0.01 0.01
0.00 0.00 0.01 0.01 0.01 0.01 0.00 0.00 0.00 0.00 0.01 0.02 0.02 0.04 0.02 0.01 0.01 0.01 0.03 0.05 0.05 0.05 0.05 0.01 0.00 0.00 0.00 0.00 0.00 0.00 0.01 0.01 0.01 0.01 0.01 0.01 0.00 0.00 0.00 0.01 0.01 0.00 0.00 0.00 0.00 0.00 0.01 0.01 0.01
0.00 0.00 0.01 0.01 0.01 0.00 0.00 0.00 0.00 0.00 0.03 0.05 0.02 0.04 0.01 0.01 0.01 0.02 0.03 0.05 0.06 0.06 0.05 0.03 0.02 0.01 0.01 0.01 0.00 0.00 0.00 0.00 0.00 0.00 0.01 0.01 0.01 0.01 0.01 0.01 0.01 0.01 0.01 0.01 0.01 0.01 0.01 0.01 0.02
0.00 0.00 0.00 0.00 0.00 0.00 0.00 0.00 0.00 0.00 0.03 0.04 0.02 0.02 0.01 0.01 0.02 0.03 0.06 0.08 0.12 0.15 0.10 0.09 0.14 0.12 0.06 0.03 0.02 0.01 0.01 0.00 0.01 0.01 0.01 0.01 0.01 0.02 0.02 0.01 0.01 0.01 0.01 0.00 0.01 0.02 0.02 0.02 0.05
0.00 0.00 0.00 0.00 0.00 0.00 0.00 0.00 0.00 0.01 0.03 0.02 0.01 0.01 0.01 0.02 0.03 0.05 0.08 0.13 0.21 0.30 0.22 0.17 0.23 0.17 0.15 0.08 0.07 0.05 0.03 0.01 0.01 0.02 0.02 0.02 0.03 0.03 0.02 0.01 0.01 0.01 0.01 0.01 0.02 0.03 0.04 0.05 0.08
0.00 0.00 0.00 0.00 0.00 0.00 0.00 0.00 0.00 0.01 0.02 0.01 0.01 0.01 0.01 0.02 0.03 0.06 0.07 0.10 0.18 0.32 0.31 0.23 0.21 0.18 0.18 0.13 0.11 0.09 0.05 0.03 0.03 0.04 0.03 0.02 0.02 0.03 0.02 0.02 0.01 0.01 0.01 0.01 0.02 0.02 0.03 0.05 0.11
0.00 0.00 0.00 0.00 0.00 0.00 0.00 0.00 0.00 0.02 0.04 0.03 0.02 0.01 0.01 0.01 0.03 0.06 0.09 0.15 0.21 0.28 0.29 0.25 0.20 0.16 0.13 0.13 0.14 0.16 0.09 0.07 0.05 0.04 0.03 0.02 0.02 0.02 0.02 0.02 0.01 0.01 0.01 0.02 0.01 0.01 0.02 0.03 0.05
0.00 0.00 0.00 0.00 0.00 0.00 0.00 0.00 0.01 0.02 0.02 0.02 0.01 0.01 0.01 0.02 0.04 0.08 0.12 0.21 0.24 0.27 0.34 0.32 0.26 0.22 0.20 0.18 0.18 0.18 0.13 0.11 0.08 0.05 0.04 0.03 0.03 0.02 0.01 0.01 0.01 0.01 0.02 0.02 0.02 0.02 0.02 0.02 0.03
0.00 0.00 0.00 0.00 0.00 0.00 0.00 0.00 0.01 0.02 0.01 0.02 0.02 0.01 0.02 0.03 0.05 0.10 0.19 0.20 0.19 0.21 0.29 0.35 0.38 0.41 0.29 0.22 0.21 0.20 0.17 0.14 0.13 0.09 0.06 0.04 0.02 0.02 0.01 0.01 0.01 0.01 0.02 0.02 0.01 0.02 0.03 0.02 0.02
0.00 0.00 0.00 0.00 0.00 0.00 0.00 0.00 0.02 0.02 0.03 0.02 0.02 0.02 0.02 0.03 0.04 0.10 0.19 0.20 0.18 0.26 0.34 0.35 0.37 0.44 0.32 0.24 0.23 0.25 0.24 0.24 0.20 0.12 0.05 0.04 0.03 0.02 0.02 0.03 0.01 0.01 0.01 0.02 0.01 0.01 0.01 0.01 0.01
0.00 0.00 0.00 0.01 0.00 0.00 0.01 0.01 0.02 0.03 0.03 0.02 0.02 0.02 0.02 0.02 0.03 0.09 0.13 0.11 0.16 0.24 0.29 0.31 0.30 0.30 0.28 0.21 0.18 0.19 0.20 0.22 0.23 0.15 0.07 0.04 0.03 0.02 0.02 0.02 0.01 0.02 0.02 0.02 0.02 0.01 0.01 0.01 0.01
0.00 0.00 0.00 0.00 0.00 0.00 0.01 0.01 0.02 0.04 0.03 0.02 0.01 0.02 0.02 0.02 0.03 0.04 0.05 0.06 0.09 0.13 0.18 0.22 0.22 0.21 0.25 0.20 0.13 0.12 0.13 0.12 0.17 0.15 0.09 0.05 0.03 0.02 0.02 0.01 0.01 0.02 0.02 0.02 0.03 0.02 0.01 0.01 0.00
0.00 0.00 0.00 0.00 0.00 0.00 0.00 0.01 0.02 0.03 0.03 0.01 0.01 0.02 0.02 0.02 0.03 0.04 0.08 0.09 0.10 0.09 0.14 0.17 0.16 0.15 0.15 0.14 0.10 0.10 0.10 0.09 0.11 0.15 0.10 0.06 0.04 0.03 0.02 0.02 0.01 0.01 0.01 0.01 0.01 0.01 0.02 0.01 0.00
0.00 0.00 0.00 0.00 0.00 0.00 0.00 0.01 0.02 0.03 0.02 0.01 0.02 0.01 0.01 0.02 0.04 0.06 0.05 0.05 0.08 0.08 0.09 0.11 0.14 0.13 0.10 0.11 0.11 0.10 0.13 0.13 0.12 0.12 0.08 0.05 0.04 0.04 0.03 0.02 0.02 0.01 0.01 0.01 0.00 0.01 0.01 0.01 0.00
0.00 0.00 0.00 0.00 0.00 0.00 0.00 0.01 0.01 0.02 0.04 0.03 0.02 0.01 0.01 0.02 0.03 0.03 0.04 0.05 0.06 0.08 0.09 0.12 0.15 0.15 0.10 0.09 0.08 0.05 0.06 0.05 0.06 0.07 0.06 0.05 0.04 0.03 0.03 0.03 0.02 0.01 0.01 0.01 0.01 0.00 0.00 0.01 0.01
0.00 0.00 0.00 0.00 0.00 0.00 0.00 0.01 0.03 0.03 0.06 0.04 0.03 0.02 0.02 0.02 0.03 0.03 0.04 0.04 0.09 0.14 0.14 0.16 0.16 0.17 0.11 0.09 0.08 0.05 0.05 0.05 0.05 0.06 0.07 0.06 0.05 0.03 0.03 0.02 0.02 0.02 0.01 0.01 0.01 0.01 0.00 0.00 0.00
0.00 0.00 0.00 0.00 0.00 0.00 0.00 0.01 0.03 0.03 0.04 0.04 0.04 0.05 0.01 0.01 0.02 0.02 0.03 0.04 0.09 0.13 0.13 0.15 0.16 0.12 0.10 0.11 0.11 0.07 0.06 0.05 0.04 0.06 0.06 0.06 0.05 0.04 0.03 0.03 0.02 0.02 0.01 0.01 0.01 0.01 0.00 0.00 0.00
0.00 0.00 0.00 0.00 0.00 0.01 0.02 0.03 0.04 0.03 0.04 0.04 0.03 0.02 0.01 0.01 0.01 0.01 0.02 0.04 0.07 0.07 0.07 0.09 0.10 0.09 0.09 0.10 0.10 0.09 0.08 0.06 0.04 0.04 0.05 0.05 0.05 0.04 0.03 0.02 0.02 0.01 0.00 0.00 0.01 0.01 0.00 0.01 0.01
0.00 0.00 0.00 0.00 0.00 0.01 0.04 0.05 0.07 0.06 0.05 0.04 0.03 0.01 0.01 0.00 0.00 0.01 0.01 0.03 0.06 0.09 0.08 0.07 0.07 0.06 0.08 0.09 0.09 0.11 0.12 0.10 0.07 0.05 0.05 0.04 0.04 0.03 0.02 0.02 0.02 0.01 0.00 0.00 0.00 0.00 0.00 0.00 0.01
0.00 0.00 0.00 0.00 0.00 0.02 0.05 0.07 0.05 0.07 0.06 0.03 0.03 0.01 0.01 0.01 0.01 0.01 0.01 0.02 0.02 0.04 0.04 0.05 0.06 0.06 0.07 0.07 0.07 0.09 0.12 0.14 0.12 0.10 0.09 0.06 0.05 0.04 0.03 0.02 0.01 0.01 0.01 0.00 0.01 0.01 0.00 0.00 0.00
0.00 0.00 0.00 0.00 0.01 0.02 0.06 0.08 0.06 0.07 0.08 0.04 0.03 0.02 0.02 0.02 0.01 0.01 0.02 0.01 0.01 0.01 0.03 0.04 0.06 0.08 0.08 0.07 0.06 0.06 0.10 0.13 0.14 0.13 0.10 0.07 0.06 0.05 0.04 0.03 0.02 0.01 0.01 0.01 0.01 0.00 0.00 0.00 0.00
0.00 0.00 0.00 0.00 0.00 0.01 0.03 0.04 0.03 0.04 0.05 0.04 0.03 0.03 0.03 0.03 0.02 0.02 0.02 0.01 0.01 0.01 0.03 0.04 0.06 0.07 0.06 0.06 0.06 0.05 0.07 0.10 0.13 0.15 0.11 0.07 0.05 0.04 0.03 0.03 0.03 0.02 0.01 0.01 0.01 0.01 0.02 0.02 0.01
0.00 0.00 0.00 0.00 0.00 0.01 0.02 0.02 0.02 0.03 0.06 0.05 0.04 0.04 0.03 0.03 0.03 0.03 0.03 0.01 0.01 0.02 0.02 0.03 0.03 0.03 0.04 0.04 0.05 0.06 0.07 0.08 0.09 0.12 0.11 0.07 0.04 0.03 0.03 0.03 0.03 0.03 0.03 0.03 0.02 0.01 0.01 0.02 0.01
MSLP
1009.30 1010.36 1011.55 1012.61 1013.33 1013.58 1013.31 1012.60 1011.63 1010.60 1009.75 1009.22 1009.08 1009.29 1009.74 1010.26 1010.71 1010.97 1011.01 1010.87 1010.64 1010.46 1010.41 1010.56 1010.92 1011.42 1011.98 1012.49 1012.90 1013.16 1013.29 1013.33 1013.36 1013.44 1013.59 1013.81 1014.09 1014.37 1014.61 1014.79 1014.89 1014.94 1014.96 1014.99 1015.04 1015.13 1015.24 1015.35 1015.45
1009.80 1011.08 1012.37 1013.41 1014.00 1014.02 1013.47 1012.47 1011.22 1009.98 1008.98 1008.36 1008.18 1008.39 1008.86 1009.41 1009.90 1010.21 1010.31 1010.25 1010.12 1010.03 1010.09 1010.33 1010.77 1011.33 1011.92 1012.47 1012.90 1013.19 1013.36 1013.46 1013.55 1013.67 1013.86 1014.10 1014.37 1014.62 1014.82 1014.95 1015.01 1015.03 1015.04 1015.07 1015.14 1015.26 1015.40 1015.54 1015.66
1010.46 1011.87 1013.18 1014.12 1014.50 1014.26 1013.42 1012.15 1010.69 1009.29 1008.20 1007.55 1007.38 1007.63 1008.13 1008.73 1009.26 1009.60 1009.75 1009.75 1009.70 1009.69 1009.83 1010.15 1010.64 1011.24 1011.85 1012.42 1012.86 1013.18 1013.39 1013.54 1013.68 1013.85 1014.07 1014.33 1014.58 1014.81 1014.97 1015.05 1015.08 1015.08 1015.09 1015.15 1015.25 1015.40 1015.57 1015.74 1015.88
1011.22 1012.66 1013.87 1014.62 1014.76 1014.23 1013.13 1011.64 1010.03 1008.57 1007.48 1006.87 1006.76 1007.07 1007.62 1008.26 1008.81 1009.19 1009.37 1009.42 1009.42 1009.48 1009.68 1010.05 1010.57 1011.18 1011.80 1012.35 1012.79 1013.12 1013.35 1013.54 1013.72 1013.94 1014.20 1014.47 1014.72 1014.93 1015.07 1015.13 1015.15 1015.15 1015.18 1015.26 1015.40 1015.59 1015.79 1015.99 1016.14
1011.99 1013.33 1014.35 1014.85 1014.69 1013.90 1012.59 1010.97 1009.31 1007.87 1006.86 1006.36 1006.36 1006.74 1007.35 1008.01 1008.57 1008.95 1009.16 1009.24 1009.29 1009.41 1009.65 1010.06 1010.59 1011.18 1011.76 1012.28 1012.69 1012.99 1013.23 1013.44 1013.67 1013.93 1014.22 1014.52 1014.80 1015.01 1015.15 1015.21 1015.24 1015.26 1015.32 1015.44 1015.62 1015.84 1016.07 1016.27 1016.43
1012.64 1013.79 1014.54 1014.72 1014.29 1013.27 1011.81 1010.16 1008.55 1007.24 1006.39 1006.05 1006.17 1006.64 1007.28 1007.95 1008.49 1008.86 1009.06 1009.17 1009.26 1009.43 1009.73 1010.15 1010.68 1011.24 1011.77 1012.22 1012.57 1012.84 1013.05 1013.27 1013.53 1013.83 1014.17 1014.52 1014.83 1015.08 1015.24 1015.33 1015.38 1015.43 1015.53 1015.68 1015.89 1016.13 1016.37 1016.58 1016.73
1013.06 1013.94 1014.37 1014.24 1013.55 1012.36 1010.86 1009.27 1007.81 1006.71 1006.07 1005.91 1006.17 1006.70 1007.36 1007.99 1008.49 1008.82 1009.01 1009.14 1009.28 1009.51 1009.85 1010.31 1010.84 1011.36 1011.83 1012.21 1012.48 1012.69 1012.87 1013.09 1013.36 1013.71 1014.10 1014.51 1014.87 1015.16 1015.36 1015.49 1015.57 1015.65 1015.77 1015.95 1016.17 1016.43 1016.67 1016.86 1017.00
1013.18 1013.75 1013.85 1013.44 1012.55 1011.28 1009.81 1008.36 1007.13 1006.29 1005.89 1005.91 1006.28 1006.85 1007.48 1008.04 1008.46 1008.73 1008.91 1009.06 1009.26 1009.57 1009.98 1010.49 1011.04 1011.54 1011.95 1012.26 1012.46 1012.60 1012.75 1012.95 1013.24 1013.62 1014.07 1014.53 1014.95 1015.28 1015.52 1015.68 1015.79 1015.88 1016.02 1016.19 1016.42 1016.67 1016.90 1017.08 1017.20
1012.99 1013.25 1013.06 1012.42 1011.39 1010.11 1008.75 1007.51 1006.54 1005.97 1005.80 1005.98 1006.42 1006.98 1007.54 1008.00 1008.33 1008.54 1008.70 1008.88 1009.16 1009.56 1010.08 1010.66 1011.24 1011.75 1012.13 1012.38 1012.52 1012.61 1012.71 1012.90 1013.20 1013.61 1014.10 1014.61 1015.07 1015.45 1015.72 1015.89 1016.00 1016.10 1016.22 1016.38 1016.59 1016.82 1017.04 1017.21 1017.32
1012.54 1012.53 1012.11 1011.30 1010.21 1008.98 1007.78 1006.78 1006.07 1005.75 1005.77 1006.07 1006.53 1007.04 1007.49 1007.83 1008.05 1008.20 1008.35 1008.58 1008.95 1009.46 1010.09 1010.78 1011.43 1011.97 1012.35 1012.57 1012.67 1012.72 1012.79 1012.96 1013.27 1013.69 1014.21 1014.74 1015.23 1015.63 1015.92 1016.09 1016.19 1016.26 1016.35 1016.48 1016.66 1016.87 1017.08 1017.26 1017.38
1011.94 1011.73 1011.14 1010.24 1009.15 1008.02 1007.00 1006.22 1005.75 1005.62 1005.79 1006.14 1006.58 1007.00 1007.32 1007.53 1007.64 1007.73 1007.88 1008.17 1008.63 1009.27 1010.03 1010.82 1011.56 1012.15 1012.56 1012.78 1012.87 1012.90 1012.95 1013.11 1013.40 1013.83 1014.35 1014.90 1015.40 1015.80 1016.09 1016.24 1016.32 1016.36 1016.42 1016.52 1016.67 1016.86 1017.07 1017.27 1017.42
1011.34 1010.99 1010.30 1009.37 1008.33 1007.32 1006.48 1005.89 1005.60 1005.61 1005.84 1006.19 1006.56 1006.86 1007.06 1007.14 1007.16 1007.21 1007.37 1007.72 1008.28 1009.02 1009.89 1010.79 1011.61 1012.27 1012.72 1012.96 1013.06 1013.09 1013.14 1013.28 1013.57 1013.98 1014.49 1015.03 1015.52 1015.92 1016.19 1016.34 1016.40 1016.41 1016.44 1016.51 1016.65 1016.84 1017.06 1017.28 1017.48
1010.88 1010.45 1009.72 1008.81 1007.84 1006.95 1006.25 1005.80 1005.63 1005.70 1005.94 1006.24 1006.52 1006.70 1006.77 1006.76 1006.71 1006.74 1006.92 1007.31 1007.94 1008.77 1009.72 1010.69 1011.58 1012.29 1012.79 1013.07 1013.20 1013.24 1013.29 1013.43 1013.70 1014.09 1014.57 1015.08 1015.56 1015.95 1016.22 1016.36 1016.42 1016.43 1016.45 1016.52 1016.65 1016.85 1017.09 1017.35 1017.60
1010.65 1010.19 1009.47 1008.60 1007.72 1006.93 1006.34 1005.98 1005.85 1005.92 1006.11 1006.33 1006.50 1006.58 1006.57 1006.49 1006.41 1006.43 1006.63 1007.05 1007.71 1008.57 1009.55 1010.55 1011.46 1012.21 1012.75 1013.07 1013.24 1013.31 1013.38 1013.51 1013.75 1014.10 1014.55 1015.03 1015.49 1015.87 1016.15 1016.32 1016.40 1016.44 1016.48 1016.57 1016.72 1016.94 1017.21 1017.52 1017.81
1010.66 1010.19 1009.50 1008.70 1007.91 1007.21 1006.69 1006.37 1006.24 1006.26 1006.37 1006.49 1006.57 1006.58 1006.51 1006.41 1006.33 1006.37 1006.57 1007.00 1007.64 1008.48 1009.42 1010.39 1011.29 1012.04 1012.60 1012.97 1013.18 1013.29 1013.38 1013.51 1013.73 1014.05 1014.44 1014.89 1015.33 1015.71 1016.02 1016.23 1016.37 1016.46 1016.56 1016.68 1016.87 1017.12 1017.43 1017.76 1018.10
1010.85 1010.39 1009.75 1009.03 1008.33 1007.71 1007.24 1006.93 1006.76 1006.71 1006.72 1006.75 1006.75 1006.71 1006.63 1006.55 1006.51 1006.57 1006.78 1007.18 1007.77 1008.52 1009.38 1010.26 1011.10 1011.83 1012.40 1012.80 1013.06 1013.22 1013.34 1013.48 1013.67 1013.95 1014.30 1014.70 1015.12 1015.51 1015.85 1016.12 1016.33 1016.51 1016.68 1016.86 1017.09 1017.38 1017.70 1018.06 1018.42
1011.08 1010.65 1010.08 1009.46 1008.87 1008.34 1007.91 1007.59 1007.37 1007.24 1007.15 1007.09 1007.04 1006.98 1006.92 1006.89 1006.90 1007.00 1007.22 1007.57 1008.08 1008.70 1009.43 1010.19 1010.93 1011.61 1012.17 1012.61 1012.93 1013.15 1013.32 1013.47 1013.65 1013.88 1014.18 1014.53 1014.92 1015.31 1015.68 1016.02 1016.32 1016.58 1016.83 1017.08 1017.35 1017.66 1018.00 1018.36 1018.72
1011.23 1010.83 1010.37 1009.90 1009.44 1009.02 1008.65 1008.32 1008.04 1007.81 1007.63 1007.49 1007.39 1007.33 1007.32 1007.35 1007.43 1007.58 1007.80 1008.11 1008.50 1008.99 1009.56 1010.17 1010.81 1011.43 1011.99 1012.47 1012.86 1013.15 1013.37 1013.55 1013.72 1013.91 1014.15 1014.44 1014.79 1015.17 1015.56 1015.95 1016.32 1016.66 1016.98 1017.29 1017.59 1017.91 1018.25 1018.60 1018.96
1011.17 1010.86 1010.55 1010.25 1009.97 1009.69 1009.39 1009.08 1008.75 1008.42 1008.13 1007.89 1007.74 1007.69 1007.72 1007.82 1007.99 1008.19 1008.42 1008.68 1008.98 1009.33 1009.74 1010.21 1010.74 1011.30 1011.87 1012.40 1012.86 1013.24 1013.54 1013.75 1013.92 1014.08 1014.25 1014.48 1014.76 1015.11 1015.50 1015.92 1016.34 1016.74 1017.12 1017.46 1017.78 1018.10 1018.42 1018.75 1019.09
1010.86 1010.69 1010.58 1010.52 1010.46 1010.35 1010.15 1009.85 1009.47 1009.03 1008.62 1008.28 1008.06 1007.98 1008.04 1008.21 1008.45 1008.71 1008.97 1009.20 1009.42 1009.65 1009.92 1010.27 1010.71 1011.23 1011.80 1012.39 1012.94 1013.42 1013.79 1014.06 1014.24 1014.36 1014.48 1014.63 1014.85 1015.14 1015.51 1015.93 1016.37 1016.80 1017.21 1017.57 1017.89 1018.20 1018.49 1018.80 1019.12
1010.33 1010.36 1010.52 1010.74 1010.94 1011.03 1010.94 1010.66 1010.21 1009.66 1009.09 1008.61 1008.29 1008.16 1008.22 1008.43 1008.74 1009.06 1009.35 1009.58 1009.74 1009.89 1010.06 1010.31 1010.68 1011.17 1011.76 1012.41 1013.05 1013.62 1014.08 1014.41 1014.61 1014.71 1014.78 1014.86 1015.01 1015.24 1015.56 1015.96 1016.39 1016.83 1017.24 1017.61 1017.93 1018.21 1018.48 1018.75 1019.06
1009.69 1009.98 1010.44 1010.98 1011.46 1011.76 1011.79 1011.52 1010.99 1010.29 1009.55 1008.90 1008.43 1008.21 1008.24 1008.47 1008.82 1009.20 1009.53 1009.78 1009.93 1010.02 1010.13 1010.31 1010.62 1011.09 1011.69 1012.39 1013.11 1013.77 1014.31 1014.70 1014.93 1015.04 1015.08 1015.11 1015.19 1015.36 1015.63 1015.99 1016.40 1016.83 1017.24 1017.60 1017.91 1018.17 1018.41 1018.66 1018.95
1009.08 1009.65 1010.44 1011.30 1012.05 1012.55 1012.68 1012.41 1011.80 1010.94 1010.00 1009.16 1008.52 1008.19 1008.15 1008.37 1008.75 1009.17 1009.55 1009.82 1009.98 1010.05 1010.12 1010.24 1010.51 1010.95 1011.56 1012.28 1013.05 1013.79 1014.40 1014.86 1015.13 1015.26 1015.29 1015.29 1015.33 1015.46 1015.68 1016.01 1016.40 1016.82 1017.22 1017.57 1017.86 1018.11 1018.33 1018.57 1018.83
1008.59 1009.45 1010.56 1011.72 1012.72 1013.38 1013.59 1013.31 1012.59 1011.57 1010.45 1009.41 1008.60 1008.13 1008.02 1008.20 1008.59 1009.05 1009.47 1009.78 1009.95 1010.02 1010.05 1010.14 1010.36 1010.76 1011.34 1012.07 1012.86 1013.64 1014.31 1014.83 1015.15 1015.32 1015.37 1015.38 1015.41 1015.51 1015.72 1016.02 1016.40 1016.80 1017.19 1017.54 1017.83 1018.07 1018.28 1018.50 1018.75
1008.30 1009.42 1010.79 1012.19 1013.38 1014.17 1014.43 1014.13 1013.32 1012.16 1010.88 1009.67 1008.71 1008.12 1007.92 1008.06 1008.45 1008.93 1009.38 1009.72 1009.91 1009.98 1009.99 1010.03 1010.20 1010.54 1011.08 1011.77 1012.56 1013.35 1014.06 1014.62 1015.00 1015.22 1015.32 1015.36 1015.41 1015.52 1015.73 1016.03 1016.40 1016.80 1017.19 1017.54 1017.83 1018.07 1018.27 1018.47 1018.70
1008.18 1009.51 1011.07 1012.63 1013.94 1014.80 1015.08 1014.75 1013.89 1012.64 1011.25 1009.93 1008.87 1008.19 1007.93 1008.04 1008.41 1008.90 1009.37 1009.73 1009.93 1010.00 1009.98 1009.99 1010.09 1010.37 1010.84 1011.47 1012.22 1012.99 1013.71 1014.30 1014.74 1015.02 1015.18 1015.27 1015.37 1015.51 1015.73 1016.04 1016.41 1016.81 1017.20 1017.55 1017.85 1018.08 1018.28 1018.47 1018.68
1008.18 1009.63 1011.29 1012.91 1014.26 1015.14 1015.42 1015.08 1014.20 1012.93 1011.51 1010.16 1009.07 1008.36 1008.07 1008.16 1008.51 1009.00 1009.47 1009.84 1010.05 1010.11 1010.08 1010.05 1010.10 1010.31 1010.70 1011.26 1011.94 1012.68 1013.38 1013.99 1014.46 1014.79 1015.02 1015.18 1015.32 1015.51 1015.75 1016.07 1016.44 1016.84 1017.23 1017.57 1017.86 1018.10 1018.29 1018.46 1018.65
1008.22 1009.69 1011.33 1012.92 1014.22 1015.07 1015.34 1015.01 1014.17 1012.96 1011.61 1010.32 1009.28 1008.60 1008.32 1008.40 1008.75 1009.22 1009.68 1010.04 1010.26 1010.32 1010.29 1010.24 1010.25 1010.40 1010.73 1011.21 1011.83 1012.50 1013.17 1013.77 1014.26 1014.63 1014.91 1015.12 1015.32 1015.54 1015.81 1016.13 1016.49 1016.87 1017.24 1017.57 1017.85 1018.07 1018.24 1018.40 1018.56
1008.21 1009.60 1011.13 1012.58 1013.78 1014.55 1014.80 1014.51 1013.76 1012.69 1011.49 1010.35 1009.44 1008.85 1008.62 1008.72 1009.05 1009.50 1009.94 1010.30 1010.51 1010.59 1010.57 1010.53 1010.55 1010.67 1010.95 1011.38 1011.92 1012.53 1013.15 1013.72 1014.20 1014.59 1014.90 1015.15 1015.38 1015.62 1015.89 1016.20 1016.54 1016.89 1017.22 1017.51 1017.75 1017.95 1018.11 1018.24 1018.37
1008.12 1009.35 1010.68 1011.94 1012.96 1013.63 1013.85 1013.63 1013.02 1012.14 1011.15 1010.23 1009.50 1009.04 1008.89 1009.01 1009.33 1009.75 1010.16 1010.51 1010.73 1010.84 1010.87 1010.88 1010.92 1011.06 1011.33 1011.72 1012.21 1012.75 1013.31 1013.83 1014.29 1014.67 1014.98 1015.24 1015.48 1015.73 1015.99 1016.27 1016.57 1016.86 1017.13 1017.37 1017.57 1017.73 1017.86 1017.98 1018.09
Thickness
5826 5824 5821 5809 5787 5769 5767 5787 5805 5809 5812 5819 5821 5813 5800 5791 5781 5772 5797 5804 5799 5793 5788 5785 5782 5781 5779 5778 5776 5775 5774 5773 5772 5771 5770 5768 5767 5765 5764 5762 5760 5758 5757 5755 5753 5752 5750 5749 5748
5828 5825 5813 5795 5771 5753 5768 5796 5805 5814 5819 5823 5819 5813 5803 5797 5803 5797 5797 5799 5799 5793 5788 5784 5781 5780 5778 5776 5775 5774 5772 5771 5770 5769 5768 5767 5765 5764 5762 5761 5759 5757 5755 5753 5751 5750 5748 5747 5745
5829 5825 5801 5781 5767 5760 5774 5801 5812 5823 5831 5825 5814 5813 5807 5801 5806 5802 5802 5801 5797 5791 5787 5783 5780 5778 5776 5774 5773 5772 5770 5769 5768 5767 5766 5765 5764 5762 5760 5759 5757 5755 5753 5751 5749 5748 5746 5745 5743
5825 5811 5796 5775 5769 5785 5796 5808 5820 5821 5825 5827 5816 5804 5809 5817 5816 5811 5805 5800 5795 5789 5786 5783 5780 5777 5775 5773 5771 5770 5769 5767 5766 5765 5765 5763 5762 5760 5759 5757 5755 5753 5751 5749 5747 5746 5744 5742 5741
5821 5798 5778 5766 5775 5798 5815 5824 5827 5821 5821 5822 5816 5799 5799 5816 5821 5812 5805 5798 5793 5787 5784 5781 5779 5776 5773 5771 5770 5768 5767 5766 5765 5764 5763 5762 5760 5758 5757 5755 5753 5751 5749 5747 5746 5744 5742 5741 5739
5802 5788 5765 5760 5780 5805 5820 5833 5831 5824 5821 5821 5815 5800 5797 5813 5813 5807 5803 5797 5793 5788 5783 5780 5777 5774 5772 5770 5768 5766 5764 5763 5762 5761 5760 5759 5758 5756 5754 5753 5751 5749 5747 5745 5744 5742 5740 5739 5738
5795 5781 5768 5773 5782 5799 5821 5836 5829 5824 5819 5820 5820 5798 5796 5804 5811 5808 5801 5795 5790 5787 5782 5778 5775 5772 5769 5767 5765 5764 5762 5761 5760 5759 5758 5757 5756 5754 5753 5751 5749 5747 5745 5743 5742 5740 5739 5738 5736
5808 5786 5775 5776 5784 5798 5828 5836 5838 5831 5823 5833 5827 5802 5794 5805 5810 5806 5798 5791 5786 5783 5779 5776 5772 5769 5766 5764 5762 5761 5760 5759 5758 5757 5756 5755 5753 5752 5750 5749 5747 5745 5743 5742 5740 5739 5737 5736 5735
5817 5779 5767 5780 5790 5803 5829 5830 5836 5843 5834 5831 5831 5824 5821 5817 5810 5800 5791 5784 5779 5777 5775 5772 5769 5766 5763 5761 5759 5758 5757 5756 5755 5754 5754 5752 5751 5750 5748 5747 5745 5744 5742 5740 5739 5737 5736 5735 5734
5802 5773 5783 5806 5813 5814 5827 5831 5832 5829 5822 5821 5822 5824 5824 5815 5806 5797 5789 5781 5776 5772 5770 5769 5766 5763 5760 5759 5756 5754 5754 5753 5753 5752 5751 5750 5749 5747 5746 5745 5743 5742 5741 5739 5738 5736 5735 5734 5733
5804 5793 5807 5818 5826 5826 5827 5830 5836 5823 5812 5818 5818 5817 5816 5810 5802 5796 5790 5785 5778 5773 5769 5766 5763 5760 5757 5756 5752 5751 5751 5751 5750 5750 5749 5748 5747 5745 5744 5743 5742 5741 5739 5738 5737 5736 5735 5734 5733
5808 5812 5819 5824 5832 5829 5828 5830 5829 5827 5826 5837 5834 5827 5817 5808 5801 5797 5791 5785 5779 5772 5768 5764 5761 5758 5755 5753 5751 5749 5749 5748 5748 5748 5747 5746 5745 5744 5743 5742 5741 5739 5738 5737 5736 5735 5734 5733 5732
5807 5812 5823 5830 5831 5832 5831 5827 5827 5828 5839 5841 5835 5825 5816 5808 5801 5796 5793 5786 5779 5772 5767 5763 5759 5756 5753 5751 5748 5746 5746 5747 5747 5747 5746 5744 5744 5743 5742 5740 5740 5739 5737 5736 5735 5734 5733 5733 5732
5812 5817 5821 5826 5829 5832 5826 5824 5823 5825 5838 5833 5827 5819 5814 5808 5800 5793 5787 5780 5775 5770 5765 5762 5758 5755 5752 5748 5746 5745 5745 5746 5746 5746 5746 5744 5743 5742 5741 5739 5739 5738 5737 5736 5735 5734 5733 5732 5732
5817 5807 5811 5822 5827 5829 5826 5809 5815 5827 5831 5824 5820 5815 5810 5805 5799 5794 5788 5781 5776 5769 5764 5760 5756 5752 5749 5746 5744 5743 5743 5744 5745 5745 5745 5744 5743 5742 5741 5739 5738 5738 5737 5736 5735 5734 5733 5732 5730
5803 5792 5785 5809 5823 5828 5813 5790 5816 5828 5823 5816 5815 5811 5805 5800 5797 5794 5788 5782 5777 5769 5762 5757 5754 5749 5747 5745 5742 5742 5742 5742 5743 5744 5744 5743 5742 5742 5740 5739 5738 5738 5737 5736 5734 5732 5731 5729 5728
5777 5769 5774 5795 5821 5822 5810 5794 5815 5824 5821 5813 5811 5807 5801 5796 5792 5789 5786 5780 5775 5768 5761 5755 5752 5748 5746 5744 5742 5741 5741 5741 5742 5743 5743 5742 5741 5741 5740 5739 5738 5738 5736 5735 5734 5731 5730 5727 5726
5759 5766 5773 5783 5809 5814 5803 5799 5812 5819 5818 5812 5808 5804 5798 5794 5790 5788 5783 5778 5772 5767 5761 5755 5751 5748 5744 5742 5740 5738 5738 5739 5740 5741 5742 5741 5740 5740 5740 5739 5738 5738 5736 5734 5733 5730 5729 5728 5726
5777 5772 5772 5789 5811 5805 5798 5797 5805 5813 5813 5808 5805 5801 5796 5793 5792 5788 5783 5777 5770 5764 5758 5754 5749 5746 5744 5741 5738 5735 5734 5736 5737 5739 5740 5740 5740 5740 5739 5739 5737 5737 5735 5733 5732 5730 5728 5726 5726
5779 5770 5774 5790 5810 5804 5793 5792 5803 5808 5809 5810 5806 5800 5795 5789 5786 5784 5780 5775 5769 5763 5758 5754 5750 5747 5745 5744 5741 5738 5737 5736 5736 5738 5738 5739 5739 5739 5739 5738 5737 5736 5734 5732 5731 5729 5726 5725 5725
5777 5772 5776 5782 5796 5798 5788 5775 5786 5798 5804 5806 5806 5802 5797 5791 5785 5782 5778 5773 5768 5763 5759 5756 5751 5748 5746 5744 5740 5737 5734 5733 5732 5734 5736 5738 5738 5738 5738 5737 5736 5735 5734 5732 5731 5730 5727 5723 5724
5767 5790 5791 5788 5775 5761 5773 5746 5770 5783 5789 5795 5797 5796 5793 5791 5786 5780 5776 5771 5768 5765 5760 5756 5752 5748 5746 5743 5740 5736 5733 5730 5732 5734 5735 5737 5737 5738 5737 5736 5735 5735 5734 5732 5731 5730 5728 5725 5721
5782 5798 5794 5787 5772 5756 5760 5748 5755 5775 5776 5786 5794 5795 5792 5790 5785 5779 5776 5772 5768 5765 5760 5755 5751 5747 5745 5743 5742 5738 5734 5733 5733 5734 5734 5734 5735 5736 5736 5735 5735 5734 5733 5732 5731 5730 5728 5727 5724
5800 5792 5781 5765 5750 5732 5747 5744 5745 5760 5773 5783 5790 5793 5791 5787 5784 5778 5775 5771 5766 5763 5759 5755 5750 5747 5746 5743 5741 5738 5735 5733 5732 5731 5731 5732 5732 5733 5734 5734 5733 5733 5732 5731 5730 5729 5728 5727 5725
5790 5757 5729 5727 5715 5721 5746 5743 5747 5775 5786 5787 5787 5789 5789 5785 5780 5775 5771 5767 5764 5761 5758 5755 5751 5748 5746 5744 5741 5739 5737 5735 5733 5732 5731 5731 5730 5730 5732 5733 5732 5731 5731 5730 5730 5729 5727 5726 5725
5776 5756 5724 5713 5710 5720 5741 5739 5757 5783 5791 5793 5791 5788 5786 5781 5779 5775 5771 5767 5764 5761 5758 5755 5751 5747 5745 5743 5741 5739 5737 5735 5734 5733 5732 5732 5731 5731 5732 5732 5731 5731 5730 5730 5729 5727 5726 5726 5724
5774 5761 5759 5734 5727 5718 5725 5744 5762 5781 5783 5785 5784 5782 5779 5777 5777 5774 5771 5767 5764 5761 5758 5755 5751 5747 5745 5743 5740 5738 5737 5735 5734 5733 5733 5732 5731 5731 5731 5730 5730 5730 5729 5728 5727 5725 5725 5724 5723
5790 5777 5747 5729 5713 5707 5721 5732 5740 5762 5769 5775 5776 5776 5776 5774 5773 5771 5769 5767 5764 5761 5759 5755 5751 5747 5744 5742 5741 5739 5737 5735 5734 5732 5730 5730 5729 5730 5729 5729 5728 5728 5727 5726 5725 5724 5723 5722 5721
5777 5770 5753 5732 5726 5711 5707 5724 5765 5767 5773 5774 5774 5776 5775 5774 5772 5769 5767 5766 5764 5761 5757 5753 5750 5746 5743 5742 5740 5738 5736 5734 5732 5730 5730 5729 5728 5727 5727 5727 5727 5726 5725 5725 5723 5722 5721 5719 5718
5779 5766 5750 5729 5726 5721 5713 5727 5777 5776 5776 5775 5774 5776 5775 5774 5772 5768 5765 5763 5761 5758 5755 5752 5749 5746 5744 5742 5739 5737 5734 5732 5730 5729 5728 5727 5726 5726 5726 5726 5725 5725 5724 5723 5721 5719 5719 5717 5715